If you wish to contribute or participate in the discussions about articles you are invited to join SKYbrary as a registered user

 Actions

Arthur Napoleon Raymond Robinson International Airport

From SKYbrary Wiki

TTCP
Airport
ICAO: TTCP – IATA: TAB
Summary
Name Arthur Napoleon Raymond Robinson International Airport
Region South America and Caribbean
Territory Trinidad and Tobago TT.gif
Location Canaan, Tobago
Serving Scarborough
Elevation 11.582 m
38 ft11.582 m
Coordinates 11° 9' 8.58" N, 60° 50' 23.68" W
Runways
Designator Length Width Surface ROPS
11/29 2744 m9,002.625 ft
48 m157.48 ft
ASP yes/yes


METAR
Observation TTCP 111000Z 10008KT 9999 FEW016 26/21 Q1013 NOSIG
Station Crown Pt./ Scarborou
Date/Time 11 April 2019 10:00:00
Wind direction 100°
Wind speed 08 kts
Lowest cloud amount few clouds
Temperature 26°C
Dew point 21°C
Humidity 74%
QNH 1013 hPa
Weather condition n/a

A. N. R. Robinson International Airport (formerly Crown Point International Airport) is an international airport located on the island of Tobago in Trinidad and Tobago. It is located in the southwestern most part of the island, near the town of Canaan.

Climatology

Tropical savannah climate (Köppen climate classification Aw)

Maps

Terrain

Loading map...

Airport Layout

Loading map...


Accidents & Serious Incidents at or in vicinity of TTCP

None on SKYbrary